カタログに戻る

OPS 1117

TRANSIT 12

運用中ナビゲーションPO
NORAD 2119·PAYLOAD·🇺🇸 United States

打ち上げ Mar 26, 1966 から Vandenberg Space Force Base

Loading…

次のパス (今後24時間)

TLE

最新Source: Space-Track

元期: Sep 14, 2026, 11:04 UTC

1 02119U 66024A   26257.46141106  .00000120  00000-0  10276-3 0  9998
2 02119  89.5962  84.7135 0147579 136.1897 225.1089 13.75433353 27429

AllMySatでOPS 1117をリアルタイム追跡

Download on the App Store